Location: Oak Harbor
(48.2930°N, 122.6420°W)
Time: 10:51:56
(UTC-07:00)

HTV-X1 - Visible Passes

Search period start: 18 May 2026 00:00
Search period end: 28 May 2026 00:00
Orbit: 372 x 382 km, 51.6° (Epoch: 18 May)

Date Brightness Start Highest point End Pass type
(mag) Time Alt. Az. Time Alt. Az. Time Alt. Az.
18 May ? 22:19:43 10° WNW 22:22:46 58° NNE 22:25:09 15° E visible
18 May ? 23:55:43 10° W 23:57:13 23° W 23:57:13 23° W visible
19 May ? 22:54:35 10° WNW 22:57:39 67° SSW 22:58:21 47° SE visible
20 May ? 21:53:32 10° WNW 21:56:38 73° NNE 21:59:29 12° ESE visible
20 May ? 23:29:42 10° W 23:31:34 22° WSW 23:31:34 22° WSW visible
21 May ? 22:28:24 10° WNW 22:31:24 46° SSW 22:32:42 27° SSE visible
22 May ? 21:27:17 10° WNW 21:30:23 86° SSW 21:33:27 10° ESE visible
22 May ? 23:03:49 10° W 23:05:53 17° SW 23:05:56 17° SW visible
23 May ? 22:02:13 10° W 22:05:01 32° SW 22:07:07 15° SSE visible
24 May ? 22:38:20 10° WSW 22:39:22 11° SW 22:40:23 10° SSW visible
25 May ? 21:36:03 10° W 21:38:32 22° SW 21:40:59 10° SSE visible
